WST516 MYAN-MYNN

Flight info

Callsign WST516
Flight time 0h 14m
Altitude 7000
Route MUNIE
Aircraft E145/M-SDFGIRW/S

Departure

Time 2026-05-05 00:10
Airport San Andros Airport (MYAN)

Arrival

Time 2026-05-05 00:24
Airport Lynden Pindling International Airport (MYNN)
Time Latitude Longitude Altitude Speed Heading
2026-05-05 00:06 25.05338 -78.04205 37 ft 0 kts 200°
2026-05-05 00:07 25.05320 -78.04212 37 ft 10 kts 200°
2026-05-05 00:07 25.05259 -78.04237 36 ft 3 kts 199°
2026-05-05 00:07 25.05217 -78.04253 35 ft 8 kts 201°
2026-05-05 00:07 25.05192 -78.04269 34 ft 4 kts 222°
2026-05-05 00:08 25.05192 -78.04340 36 ft 17 kts 291°
2026-05-05 00:08 25.05274 -78.04563 37 ft 38 kts 293°
2026-05-05 00:08 25.05378 -78.04851 29 ft 41 kts 291°
2026-05-05 00:08 25.05482 -78.05151 26 ft 42 kts 287°
2026-05-05 00:09 25.05577 -78.05435 30 ft 35 kts 292°
2026-05-05 00:09 25.05642 -78.05602 34 ft 1 kts 341°
2026-05-05 00:09 25.05642 -78.05597 34 ft 1 kts 104°
2026-05-05 00:09 25.05638 -78.05586 33 ft 0 kts 112°
2026-05-05 00:10 25.05567 -78.05389 29 ft 69 kts 109°
2026-05-05 00:10 25.05302 -78.04636 38 ft 135 kts 112°
2026-05-05 00:10 25.04905 -78.03610 424 ft 151 kts 109°
2026-05-05 00:10 25.04490 -78.02540 961 ft 160 kts 110°
2026-05-05 00:11 25.04139 -78.01375 1484 ft 168 kts 94°
2026-05-05 00:11 25.04470 -78.00062 1848 ft 188 kts 65°
2026-05-05 00:11 25.05024 -77.98687 2305 ft 204 kts 67°
2026-05-05 00:11 25.05621 -77.97175 2706 ft 229 kts 67°
2026-05-05 00:12 25.06283 -77.95491 3205 ft 251 kts 66°
2026-05-05 00:12 25.06998 -77.93669 3731 ft 265 kts 66°
2026-05-05 00:12 25.07739 -77.91780 4245 ft 275 kts 66°
2026-05-05 00:12 25.08508 -77.89816 4757 ft 283 kts 66°
2026-05-05 00:13 25.09281 -77.87844 5250 ft 277 kts 66°
2026-05-05 00:13 25.10046 -77.85891 5501 ft 281 kts 66°
2026-05-05 00:13 25.10839 -77.83865 5445 ft 293 kts 66°
2026-05-05 00:13 25.11630 -77.81840 5177 ft 285 kts 66°
2026-05-05 00:14 25.12396 -77.79883 4805 ft 270 kts 66°
2026-05-05 00:14 25.13114 -77.78046 4482 ft 251 kts 66°
2026-05-05 00:14 25.13786 -77.76324 4147 ft 237 kts 66°
2026-05-05 00:14 25.14360 -77.74683 3826 ft 225 kts 73°
2026-05-05 00:15 25.15093 -77.73217 3553 ft 217 kts 48°
2026-05-05 00:15 25.16224 -77.72130 3255 ft 218 kts 33°
2026-05-05 00:15 25.17533 -77.71264 2955 ft 220 kts 27°
2026-05-05 00:15 25.18930 -77.70522 2641 ft 222 kts 15°
2026-05-05 00:16 25.20462 -77.70433 2355 ft 223 kts 358°
2026-05-05 00:16 25.22026 -77.70534 2056 ft 223 kts 358°
2026-05-05 00:16 25.23486 -77.70290 1984 ft 206 kts 31°
2026-05-05 00:16 25.24383 -77.69209 1984 ft 187 kts 72°
2026-05-05 00:17 25.24339 -77.67862 1986 ft 174 kts 115°
2026-05-05 00:17 25.23727 -77.66763 1974 ft 163 kts 120°
2026-05-05 00:17 25.22928 -77.65927 1975 ft 154 kts 152°
2026-05-05 00:17 25.22005 -77.65398 1903 ft 147 kts 143°
2026-05-05 00:18 25.21143 -77.64741 1749 ft 154 kts 139°
2026-05-05 00:18 25.21087 -77.64695 1740 ft 154 kts 139°
2026-05-05 00:18 25.20447 -77.64136 1687 ft 151 kts 136°
2026-05-05 00:19 25.19644 -77.63373 1698 ft 158 kts 134°
2026-05-05 00:19 25.18812 -77.62531 1765 ft 161 kts 133°
2026-05-05 00:19 25.18032 -77.61712 1665 ft 141 kts 132°
2026-05-05 00:19 25.17387 -77.61020 1652 ft 126 kts 131°
2026-05-05 00:20 25.16752 -77.60326 1694 ft 133 kts 131°
2026-05-05 00:20 25.16071 -77.59578 1700 ft 141 kts 130°
2026-05-05 00:20 25.15360 -77.58793 1695 ft 148 kts 130°
2026-05-05 00:20 25.14615 -77.57970 1693 ft 152 kts 131°
2026-05-05 00:21 25.13860 -77.57137 1691 ft 155 kts 131°
2026-05-05 00:21 25.13096 -77.56291 1688 ft 157 kts 131°
2026-05-05 00:21 25.12314 -77.55428 1687 ft 155 kts 131°
2026-05-05 00:21 25.11567 -77.54601 1683 ft 150 kts 131°
2026-05-05 00:22 25.10829 -77.53786 1531 ft 151 kts 131°
2026-05-05 00:22 25.10082 -77.52959 1344 ft 148 kts 131°
2026-05-05 00:22 25.09380 -77.52189 1157 ft 137 kts 132°
2026-05-05 00:22 25.08726 -77.51461 985 ft 131 kts 132°
2026-05-05 00:23 25.08086 -77.50755 825 ft 130 kts 132°
2026-05-05 00:23 25.07446 -77.50048 659 ft 131 kts 132°
2026-05-05 00:23 25.06792 -77.49330 490 ft 133 kts 133°
2026-05-05 00:23 25.06122 -77.48610 344 ft 137 kts 133°
2026-05-05 00:24 25.05429 -77.47852 155 ft 142 kts 133°
2026-05-05 00:24 25.04749 -77.47098 37 ft 128 kts 133°
2026-05-05 00:24 25.04184 -77.46469 22 ft 99 kts 133°
2026-05-05 00:24 25.03878 -77.46118 24 ft 35 kts 131°
2026-05-05 00:25 25.03762 -77.45974 24 ft 11 kts 92°
2026-05-05 00:25 25.03802 -77.45894 25 ft 13 kts 43°
2026-05-05 00:25 25.03891 -77.45876 24 ft 15 kts 318°
2026-05-05 00:25 25.03975 -77.45971 23 ft 18 kts 314°
2026-05-05 00:26 25.04076 -77.46081 22 ft 22 kts 314°
2026-05-05 00:26 25.04188 -77.46207 23 ft 23 kts 313°
2026-05-05 00:26 25.04303 -77.46335 27 ft 23 kts 314°
2026-05-05 00:26 25.04425 -77.46473 26 ft 26 kts 315°
2026-05-05 00:27 25.04560 -77.46618 24 ft 28 kts 315°
2026-05-05 00:27 25.04693 -77.46730 23 ft 20 kts 356°
2026-05-05 00:27 25.04789 -77.46649 25 ft 15 kts 42°
2026-05-05 00:27 25.04774 -77.46597 26 ft 8 kts 171°
2026-05-05 00:28 25.04747 -77.46595 26 ft 1 kts 175°
2026-05-05 00:28 25.04745 -77.46595 26 ft 0 kts 178°